Location: Asheville, NC
(35.6000°N, 82.5500°W)
Time: 02:29:31

AO-7 - Pass Details

Date: 09 March 2018
Orbit: 1440 x 1459 km, 101.7° (Epoch: 16 March)

Event Time Altitude Azimuth Distance (km) Brightness Sun altitude
Rises 05:20:52 0° 7° (N) 4,546 ? -18.8°
Reaches altitude 10° 05:23:54 10° 360° (N) 3,562 ? -18.2°
Maximum altitude 05:31:11 36° 298° (WNW) 2,129 ? -16.7°
Enters shadow 05:36:27 18° 244° (WSW) 2,963 ? -15.6°
